Regional Weather Roundup
Issued by NWS Albany, NY

Home | Current Version | Previous Version | Text Only | Print | Product List | Glossary On
Versions: 1 2 3 4 5 6 7 8 9 10 11 12 13 14 15 16 17 18 19 20 21 22 23 24 25 26 27 28 29 30 31 32 33 34 35 36 37 38 39 40 41 42 43 44 45 46 47 48 49
000
ASUS41 KALY 041910
RWRALY

NEW YORK STATE HOURLY WEATHER ROUNDUP
NATIONAL WEATHER SERVICE ALBANY NY
200 PM EST WED MAR 04 2015

NOTE: "FAIR" INDICATES FEW OR NO CLOUDS BELOW 12,000 FEET WITH NO
SIGNIFICANT WEATHER AND/OR NO OBSTRUCTIONS TO VISIBILITY.

NYZ032-033-038>043-046>054-057>066-NYZ062>081-042000-
EAST


CITY           SKY/WX    TMP DP  RH WIND       PRES   REMARKS
ALBANY         CLOUDY    37  27  67 NW7       29.83F WCI  32
GLENS FALLS    CLOUDY    39  24  55 SW12      29.78F WCI  32
POUGHKEEPSIE   CLOUDY    43  32  65 W12       29.82F
NEWBURGH       CLOUDY    41  34  75 W9        29.83F
MONTGOMERY     CLOUDY    41  33  73 VRB7      29.82S
WHITE PLAINS   CLOUDY    42  38  85 CALM      29.81S FOG
ISLIP          CLOUDY    42  36  79 S6        29.83S HAZE
NEW YORK CITY  CLOUDY    47  36  65 W10       29.84S
CENTRAL PARK   CLOUDY    45  36  70 W6        29.86S HAZE
$$

NYZ005>009-017-018-044>046-055-056-042000-
CENTRAL


CITY           SKY/WX    TMP DP  RH WIND       PRES   REMARKS
FULTON         CLOUDY    33  22  63 W12       29.84S WCI  24
SYRACUSE       CLOUDY    31  24  75 W18G24    29.85S WCI  19
ROME           CLOUDY    33  24  69 W13G23    29.83F WCI  24
ELMIRA         CLOUDY    40  27  59 NW15      29.81F WCI  32
BINGHAMTON     CLOUDY    38  28  67 W6        29.75F WCI  33
MONTICELLO     CLOUDY    36  30  80 W6        29.80F WCI  31
$$

NYZ026>034-041>043-042000-
NORTH


CITY           SKY/WX    TMP DP  RH WIND       PRES   REMARKS
WATERTOWN      CLOUDY    34  24  67 SW20G29   29.82S WCI  23
FORT DRUM      NOT AVBL
MASSENA        CLOUDY    35  18  49 SW21G26   29.74F WCI  24
SARANAC LAKE   CLOUDY    28  21  75 W14G26    29.67F WCI  17
PLATTSBURGH    CLOUDY    37  23  56 VRB5      29.72F WCI  33
$$

NYZ001>004-010>016-019>021-042000-
WEST


CITY           SKY/WX    TMP DP  RH WIND       PRES   REMARKS
NIAGARA FALLS  CLOUDY    31  21  66 W16       29.86F WCI  20
BUFFALO        CLOUDY    32  25  75 SW17G24   29.87R WCI  21
DUNKIRK        CLOUDY    31  24  75 SW9G23    29.91R WCI  23
JAMESTOWN      CLOUDY    28  19  69 W10G17    29.85S WCI  19
WELLSVILLE     CLOUDY    34  24  67 W14       29.81R WCI  25
ROCHESTER      CLOUDY    34  21  59 W24G30    29.84F WCI  21
PENN YAN       CLOUDY    37  25  61 W9        29.83F WCI  30
$$

             KEY
       WCI = WIND CHILL INDEX
       VSB = VISIBILITY
       HX  = HEAT INDEX
$$


USA.gov is the U.S. government's official web portal to all federal, state and local government web resources and services.